[[{"header":{"parameterUnit":"m.s-1","parameterCategory":1,"la1":30.2991,"la2":30.254,"lo1":-89.0895,"lo2":-89.0444,"dy":0.0017,"dx":0.0017,"nx":28,"ny":28,"refTime":"2025-12-19T09:00:00:Z","depth":0,"parameterNumber":2,"parameterNumberName":"U-component_of_WINDS"},"data":[0,0,0,0,0,0,0,0,0,0,0,0,0,0,0,0,0,0,0,0,0,0,0,0,0,0,0,0,0,0,0,0,0,0,0,0,0,0,0,0,0,0,0,0,0,0,0,0,0,0,0,0,0,0,0,0,0,0,-4.0499,-4.05,0,-4.0627,-4.0628,-4.063,-4.0621,-4.0619,-4.0618,-4.0616,-4.0745,-4.075,-4.0755,0,0,0,0,0,0,0,0,0,0,0,0,0,-4.0246,-4.0251,-4.0499,-4.05,-4.0502,-4.0627,-4.0628,-4.063,-4.0622,-4.0619,-4.0617,-4.0615,-4.0743,-4.0749,-4.0756,0,0,0,0,0,0,0,0,0,0,0,0,0,-4.0363,-4.0252,-4.0498,-4.0513,-4.0515,-4.0626,-4.0628,-4.0631,-4.0622,-4.0619,-4.0617,-4.0614,-4.0741,-4.0749,-4.0756,-4.0861,0,0,-4.078,-4.0784,0,0,0,0,0,0,0,0,-4.0357,-4.0372,-4.0509,-4.0512,-4.0515,-4.0605,-4.0587,-4.0708,-4.0623,-4.0582,-4.0616,-4.0613,-4.0701,-4.0712,-4.0742,-4.0867,-4.0872,-4.0781,-4.0786,-4.0789,-4.0791,0,0,0,0,0,0,0,-4.0348,-4.0367,-4.0549,-4.0511,-4.0515,-4.0513,-4.0526,-4.061,-4.0655,-4.0585,-4.0585,-4.06,-4.0702,-4.0734,-4.0745,-4.0874,-4.0781,-4.0788,-4.0792,-4.0795,-4.1092,-4.1095,0,0,0,0,0,0,-4.0337,-4.036,-4.0545,-4.0553,-4.0427,-4.052,-4.0535,-4.0579,-4.0654,-4.0663,-4.0602,-4.0599,-4.0722,-4.0736,-4.0749,-4.0876,-4.0789,-4.0796,-4.0801,-4.1089,-4.1093,-4.1096,0,0,0,0,0,0,-4.0332,-4.0354,-4.054,-4.0457,-4.048,-4.0527,-4.0577,-4.0583,-4.0616,-4.0668,-4.0675,-4.0627,-4.0721,-4.0738,-4.0833,-4.088,-4.08,-4.0807,-4.1085,-4.109,-4.1095,-4.113,0,0,0,0,0,0,-4.0325,-4.0352,-4.0392,-4.0458,-4.0485,-4.0622,-4.058,-4.0588,-4.0629,-4.0626,-4.0693,-4.0701,-4.072,-4.0822,-4.0841,-4.0889,-4.0813,-4.1081,-4.1087,-4.1093,-4.1124,-4.1135,-4.1144,0,0,0,0,0,-4.0316,-4.0396,-4.0394,-4.0416,-4.0536,-4.0625,-4.064,-4.0661,-4.0633,-4.0673,-4.0707,-4.0699,-4.0873,-4.0832,-4.0853,-4.0904,-4.1078,-4.1086,-4.1093,-4.112,-4.1133,-4.1144,0,0,0,0,0,0,-4.0333,-4.0405,-4.0403,-4.0508,-4.056,-4.0623,-4.0674,-4.0674,-4.0735,-4.0729,-4.0752,-4.0767,-4.0862,-4.0894,-4.0846,-4.101,-4.0972,-4.0984,-4.0985,-4.0998,-4.1008,-4.0997,-4.0819,0,0,0,0,0,-4.035,-4.0416,-4.0475,-4.0562,-4.0589,-4.0627,-4.0667,-4.0678,-4.0734,-4.0755,-4.0796,-4.085,-4.0916,-4.0959,-4.1024,-4.1131,-4.1144,-4.1177,-4.1186,-4.1194,-4.1203,-4.1262,-4.1276,-4.112,-4.112,-4.112,0,0,-4.0383,-4.0431,-4.0471,-4.0566,-4.0609,-4.0677,-4.0646,-4.0719,-4.077,-4.0766,-4.0858,-4.0891,-4.0952,-4.1053,-4.11,-4.1082,-4.125,-4.1204,-4.1209,-4.1214,-4.1271,-4.1285,-4.1298,-4.1125,-4.1124,-4.1123,0,0,-4.0478,-4.0522,-4.0598,-4.0642,-4.0707,-4.0733,-4.0751,-4.0816,-4.0837,-4.093,-4.0929,-4.099,-4.1105,-4.1148,-4.1186,-4.1301,-4.1296,-4.1322,-4.1372,-4.1429,-4.1441,-4.1452,-4.1492,-4.1506,-4.1331,-4.1332,-4.1332,0,-4.0511,-4.0614,-4.0637,-4.0712,-4.0753,-4.0756,-4.0833,-4.0874,-4.0957,-4.0985,-4.0965,-4.111,-4.1151,-4.1263,-4.1291,-4.1322,-4.1343,-4.1312,-4.1438,-4.1449,-4.1459,-4.1497,-4.1512,-4.1334,-4.1334,-4.1334,-4.1333,0,-4.0651,-4.0723,-4.0777,-4.0857,-4.0906,-4.0981,-4.1016,-4.1062,-4.1071,-4.1099,-4.1194,-4.1245,-4.1319,-4.1348,-4.1356,-4.1461,-4.1448,-4.1433,-4.1394,-4.1476,-4.1512,-4.1527,-4.1338,-4.1337,-4.1336,-4.1336,0,0,-4.0756,-4.0852,-4.0871,-4.0907,-4.0981,-4.1037,-4.1113,-4.1187,-4.1226,-4.1284,-4.1348,-4.1446,-4.1433,-4.1476,-4.149,-4.154,-4.1627,-4.1519,-4.1521,-4.1535,-4.1744,-4.1753,-4.1769,-4.1626,-4.1629,-4.1631,-4.1738,0,-4.0857,-4.0992,-4.1017,-4.1135,-4.1201,-4.1206,-4.1273,-4.1325,-4.1354,-4.1415,-4.1447,-4.1516,-4.1494,-4.152,-4.1571,-4.1606,-4.1669,-4.1599,-4.1683,-4.1686,-4.1664,-4.1789,-4.1798,-4.1896,-4.1753,-4.1755,-4.1757,0,-4.0992,-4.1054,-4.1179,-4.1245,-4.1273,-4.1332,-4.1403,-4.1461,-4.1521,-4.1539,-4.1588,-4.1597,-4.1677,-4.1638,-4.1748,-4.1699,-4.1736,-4.1759,-4.1764,-4.1769,-4.1724,-4.1795,-4.1929,-4.1942,-4.178,-4.1778,-4.1776,0,-4.1054,-4.1169,-4.1259,-4.1291,-4.137,-4.1411,-4.1446,-4.1504,-4.1547,-4.161,-4.1638,-4.1709,-4.1746,-4.1801,-4.1829,-4.1798,-4.1936,-4.19,-4.1952,-4.1951,-4.1977,-4.1975,-4.2116,-4.2007,-4.2006,-4.2006,-4.2006,0,-4.1162,-4.1237,-4.1288,-4.1342,-4.1427,-4.1456,-4.1539,-4.1573,-4.1625,-4.1686,-4.1697,-4.1754,-4.1789,-4.1851,-4.1874,-4.1961,-4.1979,-4.1994,-4.1999,-4.1992,-4.1989,-4.2013,-4.2006,-4.201,-4.2009,-4.2008,-4.2008,0,-4.1243,-4.128,-4.1378,-4.1446,-4.1465,-4.1525,-4.1583,-4.1636,-4.1668,-4.1745,-4.1765,-4.1813,-4.1887,-4.1922,-4.2014,-4.2029,-4.2127,-4.2129,-4.2106,-4.2107,-4.2157,-4.2151,-4.2316,-4.2338,-4.2217,-4.2218,-4.2219,0,-4.1308,-4.1366,-4.1441,-4.1484,-4.152,-4.1588,-4.1633,-4.1665,-4.1711,-4.1785,-4.183,-4.1905,-4.1966,-4.2085,-4.2128,-4.2198,-4.22,-4.2253,-4.221,-4.2201,-4.2198,-4.2192,-4.2198,-4.2259,-4.226,-4.2261,-4.2262,0,-4.1418,-4.1434,-4.1498,-4.157,-4.1624,-4.1682,-4.1739,-4.1773,-4.1814,-4.1865,-4.1942,-4.199,-4.2085,-4.2159,-4.2233,-4.2269,-4.2272,-4.2276,-4.2291,-4.2283,-4.2267,-4.2274,-4.2124,-4.2271,-4.227,-4.2269,-4.2269,-4.2269,-4.1491,-4.1543,-4.1605,-4.1677,-4.1723,-4.1777,-4.183,-4.1869,-4.1934,-4.2013,-4.2029,-4.211,-4.2171,-4.2271,-4.231,-4.2374,-4.2362,-4.2384,-4.2389,-4.2394,-4.2395,-4.226,-4.2388,-4.2388,-4.2388,-4.2388,-4.2388,0,-4.1599,-4.164,-4.1706,-4.1786,-4.1843,-4.1844,-4.1908,-4.1955,-4.2026,-4.2083,-4.2144,-4.2233,-4.2306,-4.2356,-4.243,-4.2471,-4.2475,-4.2489,-4.2485,-4.2493,-4.2403,-4.2382,-4.2485,-4.2485,-4.2485,-4.2485,-4.2485,-4.2485,-4.1662,-4.175,-4.1774,-4.1886,-4.1926,-4.2006,-4.2042,-4.2092,-4.2137,-4.2236,-4.2297,-4.233,-4.2384,-4.2463,-4.253,-4.2543,-4.2568,-4.2583,-4.2595,-4.251,-4.2499,-4.2489,-4.2469,-4.2589,-4.2589,-4.2679,-4.268,-4.268]},{"header":{"parameterUnit":"m.s-1","parameterCategory":1,"la1":30.2991,"la2":30.254,"lo1":-89.0895,"lo2":-89.0444,"dy":0.0017,"dx":0.0017,"nx":28,"ny":28,"refTime":"2025-12-19T09:00:00:Z","depth":0,"parameterNumber":3,"parameterNumberName":"V-component_of_WINDS"},"data":[0,0,0,0,0,0,0,0,0,0,0,0,0,0,0,0,0,0,0,0,0,0,0,0,0,0,0,0,0,0,0,0,0,0,0,0,0,0,0,0,0,0,0,0,0,0,0,0,0,0,0,0,0,0,0,0,0,0,1.5412,1.5413,0,1.546,1.5461,1.5461,1.5429,1.5428,1.5426,1.5425,1.5474,1.5476,1.5479,0,0,0,0,0,0,0,0,0,0,0,0,0,1.5294,1.5297,1.5412,1.5413,1.5413,1.546,1.5461,1.5461,1.5429,1.5427,1.5426,1.5424,1.5473,1.5476,1.5479,0,0,0,0,0,0,0,0,0,0,0,0,0,1.5344,1.5298,1.5412,1.5403,1.5402,1.546,1.5461,1.5462,1.543,1.5427,1.5425,1.5423,1.5472,1.5476,1.548,1.5549,0,0,1.5492,1.5494,0,0,0,0,0,0,0,0,1.5342,1.5349,1.5403,1.5403,1.5403,1.5436,1.5437,1.5491,1.543,1.5419,1.5425,1.5422,1.5463,1.5468,1.5482,1.5551,1.5553,1.5492,1.5495,1.5497,1.5498,0,0,0,0,0,0,0,1.5338,1.5346,1.5431,1.5404,1.5404,1.5397,1.5402,1.5447,1.5453,1.542,1.5418,1.5424,1.5463,1.5478,1.5483,1.5554,1.5492,1.5496,1.5498,1.55,1.5687,1.569,0,0,0,0,0,0,1.5335,1.5344,1.5429,1.5432,1.5366,1.5401,1.5406,1.5428,1.5452,1.5454,1.5426,1.5422,1.5472,1.5478,1.5484,1.557,1.5497,1.55,1.5503,1.5685,1.5688,1.5691,0,0,0,0,0,0,1.5333,1.5343,1.5428,1.5388,1.5398,1.5405,1.543,1.543,1.5445,1.5457,1.5458,1.544,1.5471,1.5479,1.5534,1.5571,1.5502,1.5506,1.5682,1.5686,1.5689,1.574,0,0,0,0,0,0,1.533,1.5343,1.5368,1.5388,1.54,1.5476,1.5432,1.5433,1.5452,1.5448,1.5471,1.5472,1.5469,1.5528,1.5538,1.5575,1.5509,1.5679,1.5684,1.5688,1.5735,1.5745,1.5754,0,0,0,0,0,1.5326,1.5379,1.537,1.538,1.5432,1.5478,1.5485,1.5481,1.5455,1.5482,1.549,1.5471,1.5565,1.5534,1.5545,1.5584,1.5676,1.5682,1.5688,1.5731,1.5743,1.5754,0,0,0,0,0,0,1.5362,1.5382,1.5371,1.5433,1.5454,1.5473,1.5506,1.5493,1.5522,1.5517,1.551,1.5516,1.5575,1.5584,1.555,1.5655,1.5617,1.5625,1.5646,1.5658,1.5667,1.5664,1.5512,0,0,0,0,0,1.5378,1.5413,1.5428,1.5482,1.5493,1.5498,1.5518,1.5513,1.5535,1.5543,1.5555,1.5577,1.5612,1.5635,1.5667,1.5736,1.5742,1.5769,1.5778,1.5785,1.5793,1.5834,1.5847,1.571,1.571,1.5709,0,0,1.541,1.5425,1.5447,1.549,1.5505,1.5544,1.5505,1.5546,1.5575,1.5549,1.5604,1.5614,1.5638,1.5702,1.573,1.5712,1.5833,1.5793,1.5799,1.5803,1.5842,1.5855,1.5866,1.5714,1.5713,1.5712,0,0,1.5488,1.5502,1.555,1.5567,1.5593,1.5596,1.5608,1.5629,1.5635,1.5689,1.5672,1.5706,1.5765,1.5785,1.5802,1.5892,1.5878,1.5903,1.5952,1.5992,1.6003,1.6013,1.6048,1.606,1.591,1.591,1.591,0,1.5525,1.5581,1.5576,1.562,1.564,1.562,1.5669,1.5686,1.5721,1.5736,1.5715,1.5792,1.5806,1.5876,1.5898,1.5912,1.5927,1.5901,1.6002,1.6011,1.602,1.6054,1.6067,1.5913,1.5913,1.5913,1.5912,0,1.5627,1.5667,1.5702,1.5738,1.5762,1.5808,1.5812,1.5837,1.5831,1.5837,1.5895,1.5912,1.595,1.5965,1.5959,1.6036,1.6024,1.6002,1.5965,1.6037,1.6069,1.6081,1.5918,1.5917,1.5916,1.5915,0,0,1.5729,1.5763,1.5777,1.5794,1.5822,1.5853,1.59,1.5937,1.5961,1.5986,1.6027,1.6079,1.606,1.6081,1.6076,1.6111,1.6186,1.6086,1.6086,1.6107,1.6276,1.6294,1.6309,1.6176,1.6178,1.618,1.6275,0,1.5811,1.5893,1.5891,1.5968,1.6007,1.5989,1.603,1.6053,1.6061,1.6095,1.6103,1.6142,1.6113,1.6126,1.6159,1.617,1.622,1.6162,1.6216,1.6218,1.6213,1.6325,1.6343,1.6432,1.6287,1.6289,1.629,0,1.5918,1.5949,1.603,1.6056,1.6072,1.6109,1.6145,1.6178,1.6204,1.6208,1.6232,1.6223,1.6273,1.6233,1.6303,1.6264,1.6286,1.6295,1.6298,1.6305,1.626,1.6337,1.6459,1.6474,1.6309,1.6308,1.6306,0,1.5989,1.605,1.6107,1.6123,1.6153,1.618,1.6195,1.6219,1.6243,1.6274,1.629,1.6327,1.6348,1.6377,1.638,1.635,1.6451,1.6411,1.6458,1.6458,1.6481,1.648,1.6612,1.6491,1.6491,1.649,1.649,0,1.6082,1.6133,1.614,1.6176,1.6234,1.6231,1.6289,1.63,1.6323,1.6362,1.6348,1.6385,1.6385,1.6423,1.6425,1.6485,1.6493,1.6499,1.6499,1.6502,1.6502,1.6517,1.6512,1.6494,1.6493,1.6492,1.6492,0,1.6171,1.6177,1.6239,1.6264,1.6272,1.6314,1.6336,1.6371,1.6378,1.6428,1.6439,1.6451,1.6496,1.6501,1.6552,1.6554,1.6627,1.6619,1.6619,1.6618,1.6666,1.6663,1.6815,1.6836,1.6699,1.67,1.6701,0,1.6231,1.6271,1.6301,1.6327,1.6343,1.6383,1.6409,1.6409,1.6436,1.6471,1.6503,1.6546,1.6581,1.6654,1.6667,1.6708,1.6703,1.6753,1.6708,1.6711,1.6707,1.6706,1.6712,1.6762,1.6764,1.6765,1.6766,0,1.6339,1.6342,1.6378,1.6418,1.6449,1.6479,1.6508,1.653,1.6534,1.6565,1.6611,1.6639,1.6693,1.6738,1.6778,1.6793,1.6782,1.678,1.6794,1.6798,1.6797,1.6802,1.6645,1.6777,1.6776,1.6775,1.6774,1.6774,1.6418,1.6454,1.6482,1.6525,1.6547,1.6575,1.661,1.6623,1.6662,1.6707,1.6704,1.6756,1.6785,1.6838,1.6857,1.6899,1.6882,1.6901,1.6906,1.6912,1.6918,1.6789,1.6905,1.6905,1.6905,1.6905,1.6904,0,1.6528,1.6546,1.6585,1.6627,1.6662,1.6648,1.668,1.671,1.6756,1.6784,1.6819,1.6875,1.6919,1.6937,1.6981,1.7011,1.7007,1.7023,1.7022,1.7026,1.6929,1.6914,1.7025,1.7025,1.7025,1.7025,1.7025,1.7025,1.659,1.6651,1.6657,1.673,1.6748,1.6799,1.6819,1.6846,1.6869,1.6931,1.6968,1.698,1.7005,1.7051,1.7092,1.7096,1.7114,1.7133,1.7136,1.7045,1.7033,1.7021,1.7007,1.7136,1.7137,1.723,1.7231,1.7232]}]]